Springfield, VT

5:43 PM EDT on July 27, 2017 (GMT -0400)
Hartness State

Weather History for KVSF - September, 2012

Change the Weather History Date:

Wednesday, September 5, 2012

  Actual Average Record
Temperature  
Mean Temperature 71 °F 63 °F  
Max Temperature 80 °F 75 °F 88 °F (2014)
Min Temperature 61 °F 52 °F 36 °F (2000)
Degree Days  
Heating Degree Days 0 3  
Month to date heating degree days 0 14  
Since 1 July heating degree days 6 69  
Cooling Degree Days 6 2  
Month to date cooling degree days 18 10  
Year to date cooling degree days 612 331  
Growing Degree Days 20 (Base 50)    
Moisture  
Dew Point 64 °F    
Average Humidity 74    
Maximum Humidity 93    
Minimum Humidity 54    
Precipitation  
Precipitation 0.03 in 0.09 in 1.36 in (2011)
Month to date precipitation 0.15 0.45  
Year to date precipitation 22.34 28.82  
Sea Level Pressure  
Sea Level Pressure 29.77 in    
Wind  
Wind Speed 4 mph (WNW)    
Max Wind Speed 17 mph    
Max Gust Speed 24 mph    
Visibility 9 miles    
Events Rain    
T = Trace of Precipitation, MM = Missing Value Source: NWS Daily Summary

Daily Weather History Graph

Daily Weather History Graph

Search for Another Location

Airport or City:

Trip Planner

Search our weather history database for the weather conditions in past years. The results will help you decide how hot, cold, wet, or windy it might be!

Date:

Astronomy

Sep. 05, 2012 Rise Set
Actual Time 6:19 AM EDT 7:17 PM EDT
Civil Twilight 5:49 AM EDT 7:46 PM EDT
Nautical Twilight 5:15 AM EDT 8:20 PM EDT
Astronomical Twilight 4:38 AM EDT 8:57 PM EDT
Moon 9:34 PM EDT (9/5) 11:30 AM EDT (9/5)
Length of Visible Light 13h 56m
Length of Day
12h 58m
Waning Gibbous, 76% of the Moon is Illuminated
Sep 5
Waning Gibbous
Sep 8
Last Quarter
Sep 15
New
Sep 22
First Quarter
Sep 29
Full

Hourly Weather History & Observations

Time (EDT) Temp. Dew Point Humidity Pressure Visibility Wind Dir Wind Speed Gust Speed Precip Events Conditions
12:02 AM 66.2 °F 64.4 °F 94% 29.84 in 3.0 mi Calm Calm - N/A   Overcast
12:54 AM 66.9 °F 64.0 °F 90% 29.80 in 5.0 mi Calm Calm - 0.00 in Rain Light Rain
1:29 AM 66.2 °F 64.4 °F 94% 29.79 in 8.0 mi Calm Calm - 0.01 in Rain Light Rain
1:54 AM 66.9 °F 64.0 °F 90% 29.78 in 8.0 mi WNW 3.5 mph - 0.01 in   Overcast
2:54 AM 68.0 °F 64.9 °F 90% 29.73 in 10.0 mi NW 3.5 mph - 0.00 in   Overcast
3:06 AM 69.8 °F 66.2 °F 88% 29.73 in 10.0 mi Calm Calm - N/A   Overcast
3:15 AM 69.8 °F 66.2 °F 88% 29.73 in 10.0 mi NW 3.5 mph - N/A   Overcast
3:41 AM 69.8 °F 66.2 °F 88% 29.72 in 10.0 mi NNW 3.5 mph - 0.00 in   Overcast
3:54 AM 69.1 °F 66.9 °F 93% 29.71 in 7.0 mi Calm Calm - 0.01 in Rain Light Rain
4:54 AM 69.1 °F 66.0 °F 90% 29.66 in 10.0 mi Calm Calm - 0.00 in   Overcast
5:04 AM 71.6 °F 68.0 °F 88% 29.67 in 10.0 mi Variable 3.5 mph - N/A   Mostly Cloudy
5:32 AM 71.6 °F 68.0 °F 88% 29.68 in 10.0 mi Calm Calm - N/A   Mostly Cloudy
5:54 AM 71.1 °F 69.1 °F 93% 29.68 in 10.0 mi Calm Calm - N/A   Overcast
6:07 AM 69.8 °F 66.2 °F 88% 29.69 in 9.0 mi Calm Calm - N/A   Overcast
6:54 AM 71.1 °F 69.1 °F 93% 29.70 in 9.0 mi Calm Calm - N/A   Overcast
7:24 AM 71.6 °F 66.2 °F 83% 29.72 in 7.0 mi West 9.2 mph 18.4 mph 0.00 in Rain Light Rain
7:54 AM 70.0 °F 64.0 °F 81% 29.73 in 10.0 mi WSW 10.4 mph - 0.00 in   Overcast
8:54 AM 71.1 °F 62.1 °F 73% 29.75 in 10.0 mi WNW 5.8 mph - 0.01 in   Partly Cloudy
9:23 AM 73.4 °F 62.6 °F 69% 29.76 in 10.0 mi NNW 8.1 mph - N/A   Mostly Cloudy
9:54 AM 73.0 °F 61.0 °F 66% 29.77 in 10.0 mi WNW 9.2 mph 19.6 mph N/A   Scattered Clouds
10:54 AM 72.0 °F 61.0 °F 68% 29.78 in 10.0 mi West 13.8 mph - N/A   Overcast
11:45 AM 73.4 °F 62.6 °F 69% 29.80 in 10.0 mi West 10.4 mph 18.4 mph N/A   Overcast
11:54 AM 73.9 °F 62.1 °F 66% 29.79 in 10.0 mi West 12.7 mph 16.1 mph N/A   Overcast
12:50 PM 75.2 °F 62.6 °F 65% 29.80 in 10.0 mi WNW 8.1 mph - N/A   Overcast
12:54 PM 75.0 °F 62.1 °F 64% 29.80 in 10.0 mi West 6.9 mph - N/A   Overcast
1:54 PM 78.1 °F 62.1 °F 58% 29.80 in 10.0 mi Calm Calm - N/A   Mostly Cloudy
2:54 PM 79.0 °F 60.1 °F 52% 29.79 in 10.0 mi WNW 8.1 mph - N/A   Overcast
3:54 PM 78.1 °F 61.0 °F 56% 29.80 in 10.0 mi NW 4.6 mph - N/A   Overcast
4:54 PM 77.0 °F 61.0 °F 58% 29.81 in 10.0 mi Variable 4.6 mph - N/A   Overcast
5:54 PM 75.0 °F 60.1 °F 60% 29.81 in 10.0 mi Variable 3.5 mph - N/A   Overcast
6:54 PM 73.9 °F 59.0 °F 59% 29.83 in 10.0 mi Calm Calm - N/A   Mostly Cloudy
7:54 PM 68.0 °F 62.1 °F 81% 29.85 in 10.0 mi East 3.5 mph - N/A   Clear
8:54 PM 66.0 °F 62.1 °F 87% 29.86 in 10.0 mi Calm Calm - N/A   Clear
9:54 PM 64.0 °F 61.0 °F 90% 29.87 in 10.0 mi North 3.5 mph - N/A   Clear
10:54 PM 62.1 °F 59.0 °F 90% 29.88 in 10.0 mi Calm Calm - N/A   Mostly Cloudy
11:54 PM 62.1 °F 59.0 °F 90% 29.86 in 10.0 mi WSW 3.5 mph - N/A   Partly Cloudy